Location: *
(51.4660°N, 0.3360°W)
Time: 13:02:07
(UTC+00:00)

IGS 5A - Pass Details

Date: 19 September 2019
Orbit: 583 x 589 km, 97.6° (Epoch: 27 September)

Event Time Altitude Azimuth Distance (km) Brightness Sun altitude
Exits shadow 21:05:41 40° 12° (NNE) 871 4.4 -26.2°
Drops below altitude 10° 21:08:33 10° 353° (N) 1,924 6.7 -26.6°
Sets 21:10:44 0° 349° (N) 2,829 7.7 -26.8°
